User: anonymous   Login
Location: ??
(35.5052°N, 139.7262°E)
Time: 08:20:45
(UTC+00:00)
Language:

FENGYUN 1C DEB - Orbit

View from above orbital plane
View from above orbital plane
View from above satellite
View from above satellite

Ground track
Ground track

The orbit data is extracted from the following two-line orbital elements,

1 30340U 99025ABB 22028.79597883 -.00000238  00000-0 -11190-3 0  9995
2 30340  99.1974  67.0782 0148153  97.5368 315.8635 14.03643174769399
Epoch (UTC): 28 January 2022 19:06:12
Eccentricity: 0.0148153
inclination: 99.1974°
perigee height: 773 km
apogee height: 989 km
right ascension of ascending node: 67.0782°
argument of perigee: 97.5368°
revolutions per day: 14.03643174
mean anomaly at epoch: 315.8635°
orbit number at epoch: 76939

The dashed part of the orbit path shows where the satellite is in the earth's shadow,  

DLR